Date String (YYYY-MM-DD hh:mm:ss) UTC,Instrument flags,Ambient pressure (hPa),Sample flow (lpm),Bypass flow (lpm),Sample temperature (°C),Ambient temperature (°C),ASC tube jacket temperature (°C),LED temperature (°C),Box temperature (°C),Sample RH (%),Span deviation,Mass concentration (μg/m³),Mass concentration (μg/m³),Mass concentration (μg/m³)
DateTimeUTC,F1_M11,P_M11,Q1_M11,Q2_M11,T1_M11,T2_M11,T3_M11,T4_M11,T5_M11,U1_M11,ZSPAN_M11,X2_M11,X0_M11,X1_M11
2023-02-03 21:00:00,,0828.3,5.04,0.00,27.9,26.4,00.0,36.8,29.6,05.8,0000.0,0000.87,0002.71,0000.36
2023-02-03 21:01:00,,0828.3,4.97,0.00,27.9,26.4,00.0,36.7,29.6,05.8,0000.0,0000.84,0002.68,0000.36
2023-02-03 21:02:00,,0828.3,5.02,0.00,27.9,26.4,00.0,36.7,29.6,06.1,0000.0,0000.81,0002.51,0000.36
2023-02-03 21:03:00,,0828.3,4.99,0.00,27.9,26.4,00.0,36.7,29.6,05.9,0000.0,0000.83,0002.62,0000.36
2023-02-03 21:04:00,,0828.3,5.02,0.00,27.9,26.4,00.0,36.7,29.6,06.0,0000.0,0000.88,0002.83,0000.36
2023-02-03 21:05:00,,0828.3,5.02,0.00,27.9,26.4,00.0,36.7,29.5,05.9,0000.0,0000.89,0002.88,0000.36
2023-02-03 21:06:00,,0828.3,4.98,0.00,27.8,26.4,00.0,36.7,29.5,05.7,0000.0,0000.91,0002.76,0000.35
2023-02-03 21:07:00,,0828.3,5.03,0.00,27.8,26.3,00.0,36.7,29.5,06.4,0000.0,0000.91,0002.33,0000.36
2023-02-03 21:08:00,,0828.3,4.96,0.00,27.8,26.4,00.0,36.7,29.6,07.0,0000.0,0000.94,0002.37,0000.36
2023-02-03 21:09:00,,0828.3,5.04,0.00,27.8,26.4,00.0,36.7,29.5,07.7,0000.0,0000.93,0002.41,0000.35
2023-02-03 21:10:00,,0828.3,4.97,0.00,27.8,26.4,00.0,36.7,29.6,07.8,0000.0,0000.95,0002.54,0000.35
2023-02-03 21:11:00,,0828.3,5.03,0.00,27.8,26.4,00.0,36.7,29.6,07.4,0000.0,0000.90,0002.28,0000.35
2023-02-03 21:12:00,,0828.3,4.97,0.00,27.9,26.5,00.0,36.7,29.6,07.1,0000.0,0000.99,0002.54,0000.36
2023-02-03 21:13:00,,0828.3,5.03,0.00,27.8,26.4,00.0,36.7,29.4,06.6,0000.0,0001.04,0002.75,0000.35
2023-02-03 21:14:00,,0828.3,4.97,0.00,27.8,26.4,00.0,36.7,29.5,06.3,0000.0,0001.02,0002.61,0000.35
2023-02-03 21:15:00,,0828.2,5.04,0.00,27.8,26.5,00.0,36.7,29.5,06.8,0000.0,0000.97,0002.39,0000.35
2023-02-03 21:16:00,,0828.2,4.96,0.00,27.8,26.5,00.0,36.7,29.6,06.4,0000.0,0000.94,0002.44,0000.35
2023-02-03 21:17:00,,0828.4,5.03,0.00,27.8,26.5,00.0,36.7,29.5,06.9,0000.0,0000.90,0002.35,0000.36
2023-02-03 21:18:00,,0828.2,4.96,0.00,27.8,26.5,00.0,36.7,29.5,06.2,0000.0,0000.89,0002.33,0000.36
2023-02-03 21:19:00,,0828.2,5.03,0.00,27.8,26.5,00.0,36.7,29.5,06.0,0000.0,0000.86,0002.30,0000.36
2023-02-03 21:20:00,,0828.2,5.02,0.00,27.8,26.4,00.0,36.7,29.5,06.0,0000.0,0000.86,0002.24,0000.36
2023-02-03 21:21:00,,0828.1,4.97,0.00,27.8,26.4,00.0,36.7,29.5,05.6,0000.0,0000.85,0002.10,0000.37
2023-02-03 21:22:00,,0828.2,5.03,0.00,27.8,26.4,00.0,36.7,29.5,05.6,0000.0,0000.87,0002.15,0000.37
2023-02-03 21:23:00,,0828.2,4.97,0.00,27.8,26.4,00.0,36.7,29.5,06.1,0000.0,0000.79,0001.91,0000.36
2023-02-03 21:24:00,,0828.2,5.04,0.00,27.8,26.4,00.0,36.7,29.5,05.8,0000.0,0000.75,0001.75,0000.36
2023-02-03 21:25:00,,0828.2,4.95,0.00,27.8,26.4,00.0,36.7,29.5,05.4,0000.0,0000.79,0001.86,0000.37
2023-02-03 21:26:00,,0828.1,5.03,0.00,27.8,26.3,00.0,36.7,29.5,05.6,0000.0,0000.83,0001.95,0000.38
2023-02-03 21:27:00,,0828.2,5.00,0.00,27.8,26.3,00.0,36.7,29.5,04.7,0000.0,0000.83,0001.89,0000.38
2023-02-03 21:28:00,,0828.3,5.00,0.00,27.8,26.3,00.0,36.7,29.5,05.1,0000.0,0000.84,0001.94,0000.38
2023-02-03 21:29:00,,0828.2,5.04,0.00,27.8,26.3,00.0,36.7,29.4,05.7,0000.0,0000.84,0001.93,0000.39
2023-02-03 21:30:00,,0828.2,4.95,0.00,27.8,26.3,00.0,36.7,29.4,05.8,0000.0,0000.83,0001.87,0000.39
2023-02-03 21:31:00,,0828.2,5.03,0.00,27.8,26.3,00.0,36.7,29.4,05.5,0000.0,0000.79,0001.78,0000.38
2023-02-03 21:32:00,,0828.2,4.97,0.00,27.8,26.3,00.0,36.7,29.5,05.5,0000.0,0000.75,0001.68,0000.38
2023-02-03 21:33:00,,0828.2,5.03,0.00,27.8,26.3,00.0,36.7,29.4,05.8,0000.0,0000.72,0001.53,0000.37
2023-02-03 21:34:00,,0828.2,4.98,0.00,27.8,26.3,00.0,36.7,29.4,06.6,0000.0,0000.84,0001.67,0000.46
2023-02-03 21:35:00,,0828.2,5.02,0.00,27.8,26.3,00.0,36.7,29.4,06.8,0000.0,0001.08,0002.17,0000.68
2023-02-03 21:36:00,,0828.3,4.99,0.00,27.8,26.3,00.0,36.7,29.5,07.2,0000.0,0001.47,0002.78,0001.06
2023-02-03 21:37:00,,0828.2,5.01,0.00,27.8,26.3,00.0,36.7,29.6,07.3,0000.0,0002.05,0003.63,0001.51
2023-02-03 21:38:00,,0828.2,5.01,0.00,27.8,26.4,00.0,36.7,29.6,07.3,0000.0,0002.65,0004.86,0001.97
2023-02-03 21:39:00,,0828.2,4.98,0.00,27.8,26.4,00.0,36.7,29.6,06.8,0000.0,0003.12,0005.89,0002.40
2023-02-03 21:40:00,,0828.3,5.02,0.00,27.8,26.4,00.0,36.7,29.5,07.1,0000.0,0003.45,0006.81,0002.82
2023-02-03 21:41:00,,0828.2,4.98,0.00,27.8,26.4,00.0,36.6,29.5,06.7,0000.0,0003.73,0007.46,0003.18
2023-02-03 21:42:00,,0828.1,5.03,0.00,27.8,26.4,00.0,36.6,29.5,06.1,0000.0,0003.97,0007.84,0003.36
2023-02-03 21:43:00,,0828.2,4.97,0.00,27.8,26.4,00.0,36.6,29.5,05.6,0000.0,0004.21,0008.20,0003.54
2023-02-03 21:44:00,,0828.2,5.03,0.00,27.8,26.4,00.0,36.6,29.5,05.8,0000.0,0004.45,0008.62,0003.71
2023-02-03 21:45:00,,0828.1,4.96,0.00,27.8,26.4,00.0,36.6,29.5,06.5,0000.0,0004.69,0009.21,0003.89
2023-02-03 21:46:00,,0828.1,5.04,0.00,27.8,26.4,00.0,36.6,29.5,06.9,0000.0,0004.91,0009.56,0004.04
2023-02-03 21:47:00,,0828.1,4.96,0.00,27.8,26.4,00.0,36.6,29.5,06.9,0000.0,0005.03,0009.69,0004.12
2023-02-03 21:48:00,,0828.1,5.02,0.00,27.8,26.4,00.0,36.6,29.4,06.7,0000.0,0005.03,0009.79,0004.17
2023-02-03 21:49:00,,0828.1,4.96,0.00,27.8,26.4,00.0,36.6,29.4,06.9,0000.0,0005.06,0009.65,0004.23
2023-02-03 21:50:00,,0828.1,5.03,0.00,27.8,26.4,00.0,36.6,29.5,06.8,0000.0,0005.12,0009.85,0004.29
2023-02-03 21:51:00,,0828.1,4.96,0.00,27.8,26.4,00.0,36.6,29.5,05.8,0000.0,0005.11,0010.51,0004.29
2023-02-03 21:52:00,,0828.1,5.04,0.00,27.8,26.4,00.0,36.6,29.5,05.9,0000.0,0005.03,0010.42,0004.23
2023-02-03 21:53:00,,0828.1,4.96,0.00,27.8,26.4,00.0,36.6,29.5,05.8,0000.0,0005.05,0010.83,0004.26
2023-02-03 21:54:00,,0828.2,5.04,0.00,27.8,26.5,00.0,36.6,29.5,06.5,0000.0,0005.11,0011.29,0004.28
2023-02-03 21:55:00,,0828.1,4.97,0.00,27.8,26.5,00.0,36.6,29.6,07.1,0000.0,0005.20,0011.61,0004.36
2023-02-03 21:56:00,,0828.1,5.04,0.00,27.8,26.5,00.0,36.6,29.5,07.2,0000.0,0005.24,0011.55,0004.41
2023-02-03 21:57:00,,0828.1,4.97,0.00,27.8,26.5,00.0,36.6,29.6,06.7,0000.0,0005.19,0011.39,0004.42
2023-02-03 21:58:00,,0828.2,5.02,0.00,27.8,26.5,00.0,36.6,29.6,06.5,0000.0,0005.14,0011.41,0004.39
2023-02-03 21:59:00,,0828.1,4.99,0.00,27.8,26.5,00.0,36.7,29.6,06.3,0000.0,0005.07,0011.29,0004.34
